STARLINK-3778, 52276

Orbit data source: Space-Track

STARLINK-3778, 52276 is a payload satellite owned by SpaceX/Seattle (US) in LEO that was launched on Thu, 21 Apr 2022 UTC via an FALCON 9 launch vehicle from the Air Force Eastern Test Range (AFETR). Payload-class satellites include a variety of spacecraft equipped with specific instruments for various scientific and technological missions. These include communications satellites like Starlink; space stations such as the ISS; scientific satellites like the Hubble; Earth observation satellites from companies like Planet Labs, Umbra, and HawkEye 360; GPS; miniature CubeSats for education and research; and military/defense satellites.

Loading next visibility...
Identifier
52276, 2022-041R
Orbit
LEO
Country
Flag of USUS
Related business
Manufacturer
SpaceX/Seattle
Mission
Operational Commercial Communications
Bus & Motor
STARLINK, Unknown motor
Mass
297 kg wet, ~275 kg dry
Launch date (UTC)
2022-04-21 (4 years ago)
Launch vehicle
FALCON 9
Launch site
Air Force Eastern Test Range (AFETR)
Object type
Payload
Rocket body
Debris
Shape & HBR
Box + 1 Pan, 10.1 m
Radar Cross Section
11.087 m², Large (>1 m²)

Expand to show TLE details & history
Last TLE update: 17 hours ago

TLE from 17 hours ago
0 STARLINK-3778
1 52276U 22041R   26263.43192361 -.00004556  00000-0 -12720-3 0  9996
2 52276  53.1596 308.0787 0000790  57.4171 302.6908 15.33569103243853
Epoch: 2026-09-20T10:21Z
TLE epoch observation values (Epoch: 2026-09-20T10:21:58.199Z)
Latitude
Longitude
153.26001°
Altitude
465.783 km
Speed
7.635 km/s
True Right ascension
20h 32m 18s
True Declination
0° 00' 00"
Sunlit
Object was in full shadow at epoch
Visualization orbit readout
Latitude
Unknown
Longitude
Unknown
Altitude
Unknown
Speed
Unknown
Apparent Right ascension
Unknown
Apparent Declination
Unknown
Sunlit
N/A
Visualization observer readout
Local Sidereal Time
20:49:21
Azimuth
Unknown
Elevation
Unknown
Doppler factor
Unknown
Orbital elements
Apogee altitude
465.971 km
Perigee altitude
464.89 km
Semi-major axis
6,843.568 km
Eccentricity
0.00008
Inclination
53.1596°
RAAN
308.0787°
Arg. of periapsis
57.4171°
True anomaly
302.68318°
Mean anomaly
302.6908°
Eccentric anomaly
302.68699°
Mean motion
3.83371 °/min
Orbital period
93.9 mins
BSTAR
-0.0001272
Loading maneuver chart data...
Computing Atmospheric mass density...
Loading historical data...
Loading historical data...
Loading historical data...
Loading historical data...
Loading historical data...
Loading historical data...
Loading historical data...

Documentation

Showing up to 5 results
|